Year,Month,Day,Hour,Minute,Value (Times are PST for insolation in W/m^2)
2008,06,15,00,00,0.00
2008,06,15,00,01,0.00
2008,06,15,00,02,0.00
2008,06,15,00,03,0.00
2008,06,15,00,04,0.00
2008,06,15,00,05,0.00
2008,06,15,00,06,0.00
2008,06,15,00,07,0.00
2008,06,15,00,08,0.00
2008,06,15,00,09,0.00
2008,06,15,00,10,0.00
2008,06,15,00,11,0.00
2008,06,15,00,12,0.00
2008,06,15,00,13,0.00
2008,06,15,00,14,0.00
2008,06,15,00,15,0.00
2008,06,15,00,16,0.00
2008,06,15,00,17,0.00
2008,06,15,00,18,0.00
2008,06,15,00,19,0.00
2008,06,15,00,20,0.00
2008,06,15,00,21,0.00
2008,06,15,00,22,0.00
2008,06,15,00,23,0.00
2008,06,15,00,24,0.00
2008,06,15,00,25,0.00
2008,06,15,00,26,0.00
2008,06,15,00,27,0.00
2008,06,15,00,28,0.00
2008,06,15,00,29,0.00
2008,06,15,00,30,0.00
2008,06,15,00,31,0.00
2008,06,15,00,32,0.00
2008,06,15,00,33,0.00
2008,06,15,00,34,0.00
2008,06,15,00,35,0.00
2008,06,15,00,36,0.00
2008,06,15,00,37,0.00
2008,06,15,00,38,0.00
2008,06,15,00,39,0.00
2008,06,15,00,40,0.00
2008,06,15,00,41,0.00
2008,06,15,00,42,0.00
2008,06,15,00,43,0.00
2008,06,15,00,44,0.00
2008,06,15,00,45,0.00
2008,06,15,00,46,0.00
2008,06,15,00,47,0.00
2008,06,15,00,48,0.00
2008,06,15,00,49,0.00
2008,06,15,00,50,0.00
2008,06,15,00,51,0.00
2008,06,15,00,52,0.00
2008,06,15,00,53,0.00
2008,06,15,00,54,0.00
2008,06,15,00,55,0.00
2008,06,15,00,56,0.00
2008,06,15,00,57,0.00
2008,06,15,00,58,0.00
2008,06,15,00,59,0.00
2008,06,15,01,00,0.00
2008,06,15,01,01,0.00
2008,06,15,01,02,0.00
2008,06,15,01,03,0.00
2008,06,15,01,04,0.00
2008,06,15,01,05,0.00
2008,06,15,01,06,0.00
2008,06,15,01,07,0.00
2008,06,15,01,08,0.00
2008,06,15,01,09,0.00
2008,06,15,01,10,0.00
2008,06,15,01,11,0.00
2008,06,15,01,12,0.00
2008,06,15,01,13,0.00
2008,06,15,01,14,0.00
2008,06,15,01,15,0.00
2008,06,15,01,16,0.00
2008,06,15,01,17,0.00
2008,06,15,01,18,0.00
2008,06,15,01,19,0.00
2008,06,15,01,20,0.00
2008,06,15,01,21,0.00
2008,06,15,01,22,0.00
2008,06,15,01,23,0.00
2008,06,15,01,24,0.00
2008,06,15,01,25,0.00
2008,06,15,01,26,0.00
2008,06,15,01,27,0.00
2008,06,15,01,28,0.00
2008,06,15,01,29,0.00
2008,06,15,01,30,0.00
2008,06,15,01,31,0.00
2008,06,15,01,32,0.00
2008,06,15,01,33,0.00
2008,06,15,01,34,0.00
2008,06,15,01,35,0.00
2008,06,15,01,36,0.00
2008,06,15,01,37,0.00
2008,06,15,01,38,0.00
2008,06,15,01,39,0.00
2008,06,15,01,40,0.00
2008,06,15,01,41,0.00
2008,06,15,01,42,0.00
2008,06,15,01,43,0.00
2008,06,15,01,44,0.00
2008,06,15,01,45,0.00
2008,06,15,01,46,0.00
2008,06,15,01,47,0.00
2008,06,15,01,48,0.00
2008,06,15,01,49,0.00
2008,06,15,01,50,0.00
2008,06,15,01,51,0.00
2008,06,15,01,52,0.00
2008,06,15,01,53,0.00
2008,06,15,01,54,0.00
2008,06,15,01,55,0.00
2008,06,15,01,56,0.00
2008,06,15,01,57,0.00
2008,06,15,01,58,0.00
2008,06,15,01,59,0.00
2008,06,15,02,00,0.00
2008,06,15,02,01,0.00
2008,06,15,02,02,0.00
2008,06,15,02,03,0.00
2008,06,15,02,04,0.00
2008,06,15,02,05,0.00
2008,06,15,02,06,0.00
2008,06,15,02,07,0.00
2008,06,15,02,08,0.00
2008,06,15,02,09,0.00
2008,06,15,02,10,0.00
2008,06,15,02,11,0.00
2008,06,15,02,12,0.00
2008,06,15,02,13,0.00
2008,06,15,02,14,0.00
2008,06,15,02,15,0.00
2008,06,15,02,16,0.00
2008,06,15,02,17,0.00
2008,06,15,02,18,0.00
2008,06,15,02,19,0.00
2008,06,15,02,20,0.00
2008,06,15,02,21,0.00
2008,06,15,02,22,0.00
2008,06,15,02,23,0.00
2008,06,15,02,24,0.00
2008,06,15,02,25,0.00
2008,06,15,02,26,0.00
2008,06,15,02,27,0.00
2008,06,15,02,28,0.00
2008,06,15,02,29,0.00
2008,06,15,02,30,0.00
2008,06,15,02,31,0.00
2008,06,15,02,32,0.00
2008,06,15,02,33,0.00
2008,06,15,02,34,0.00
2008,06,15,02,35,0.00
2008,06,15,02,36,0.00
2008,06,15,02,37,0.00
2008,06,15,02,38,0.00
2008,06,15,02,39,0.00
2008,06,15,02,40,0.00
2008,06,15,02,41,0.00
2008,06,15,02,42,0.00
2008,06,15,02,43,0.00
2008,06,15,02,44,0.00
2008,06,15,02,45,0.00
2008,06,15,02,46,0.00
2008,06,15,02,47,0.00
2008,06,15,02,48,0.00
2008,06,15,02,49,0.00
2008,06,15,02,50,0.00
2008,06,15,02,51,0.00
2008,06,15,02,52,0.00
2008,06,15,02,53,0.00
2008,06,15,02,54,0.00
2008,06,15,02,55,0.00
2008,06,15,02,56,0.00
2008,06,15,02,57,0.00
2008,06,15,02,58,0.00
2008,06,15,02,59,0.00
2008,06,15,03,00,0.00
2008,06,15,03,01,0.00
2008,06,15,03,02,0.00
2008,06,15,03,03,0.00
2008,06,15,03,04,0.00
2008,06,15,03,05,0.00
2008,06,15,03,06,0.00
2008,06,15,03,07,0.00
2008,06,15,03,08,0.00
2008,06,15,03,09,0.00
2008,06,15,03,10,0.00
2008,06,15,03,11,0.00
2008,06,15,03,12,0.00
2008,06,15,03,13,0.00
2008,06,15,03,14,0.00
2008,06,15,03,15,0.00
2008,06,15,03,16,0.00
2008,06,15,03,17,0.00
2008,06,15,03,18,0.00
2008,06,15,03,19,0.00
2008,06,15,03,20,0.00
2008,06,15,03,21,0.00
2008,06,15,03,22,0.00
2008,06,15,03,23,0.00
2008,06,15,03,24,0.00
2008,06,15,03,25,0.00
2008,06,15,03,26,0.00
2008,06,15,03,27,0.00
2008,06,15,03,28,0.00
2008,06,15,03,29,0.00
2008,06,15,03,30,0.00
2008,06,15,03,31,0.00
2008,06,15,03,32,0.00
2008,06,15,03,33,0.00
2008,06,15,03,34,0.00
2008,06,15,03,35,0.00
2008,06,15,03,36,0.00
2008,06,15,03,37,0.00
2008,06,15,03,38,0.00
2008,06,15,03,39,0.00
2008,06,15,03,40,0.00
2008,06,15,03,41,0.00
2008,06,15,03,42,0.00
2008,06,15,03,43,0.00
2008,06,15,03,44,0.00
2008,06,15,03,45,0.00
2008,06,15,03,46,0.00
2008,06,15,03,47,0.00
2008,06,15,03,48,0.00
2008,06,15,03,49,0.00
2008,06,15,03,50,0.00
2008,06,15,03,51,0.00
2008,06,15,03,52,0.00
2008,06,15,03,53,0.00
2008,06,15,03,54,0.00
2008,06,15,03,55,0.00
2008,06,15,03,56,0.00
2008,06,15,03,57,0.00
2008,06,15,03,58,0.00
2008,06,15,03,59,0.00
2008,06,15,04,00,0.00
2008,06,15,04,01,0.00
2008,06,15,04,02,0.00
2008,06,15,04,03,0.00
2008,06,15,04,04,0.00
2008,06,15,04,05,0.00
2008,06,15,04,06,0.00
2008,06,15,04,07,0.00
2008,06,15,04,08,0.00
2008,06,15,04,09,0.00
2008,06,15,04,10,0.00
2008,06,15,04,11,0.00
2008,06,15,04,12,0.00
2008,06,15,04,13,0.00
2008,06,15,04,14,0.00
2008,06,15,04,15,0.00
2008,06,15,04,16,0.00
2008,06,15,04,17,0.00
2008,06,15,04,18,0.00
2008,06,15,04,19,0.00
2008,06,15,04,20,0.00
2008,06,15,04,21,0.00
2008,06,15,04,22,0.00
2008,06,15,04,23,0.00
2008,06,15,04,24,0.00
2008,06,15,04,25,0.00
2008,06,15,04,26,0.00
2008,06,15,04,27,0.00
2008,06,15,04,28,0.00
2008,06,15,04,29,0.00
2008,06,15,04,30,0.00
2008,06,15,04,31,0.00
2008,06,15,04,32,0.00
2008,06,15,04,33,0.00
2008,06,15,04,34,0.00
2008,06,15,04,35,0.00
2008,06,15,04,36,0.00
2008,06,15,04,37,0.00
2008,06,15,04,38,0.00
2008,06,15,04,39,0.00
2008,06,15,04,40,0.00
2008,06,15,04,41,0.00
2008,06,15,04,42,0.00
2008,06,15,04,43,0.00
2008,06,15,04,44,0.00
2008,06,15,04,45,0.00
2008,06,15,04,46,0.00
2008,06,15,04,47,0.00
2008,06,15,04,48,0.00
2008,06,15,04,49,0.00
2008,06,15,04,50,0.00
2008,06,15,04,51,0.00
2008,06,15,04,52,0.00
2008,06,15,04,53,0.00
2008,06,15,04,54,0.00
2008,06,15,04,55,0.00
2008,06,15,04,56,0.00
2008,06,15,04,57,0.00
2008,06,15,04,58,0.00
2008,06,15,04,59,0.00
2008,06,15,05,00,0.00
2008,06,15,05,01,0.00
2008,06,15,05,02,0.00
2008,06,15,05,03,0.00
2008,06,15,05,04,0.00
2008,06,15,05,05,0.00
2008,06,15,05,06,0.00
2008,06,15,05,07,0.90
2008,06,15,05,08,5.00
2008,06,15,05,09,5.00
2008,06,15,05,10,5.00
2008,06,15,05,11,5.00
2008,06,15,05,12,5.00
2008,06,15,05,13,5.90
2008,06,15,05,14,7.00
2008,06,15,05,15,7.00
2008,06,15,05,16,7.00
2008,06,15,05,17,7.00
2008,06,15,05,18,8.10
2008,06,15,05,19,9.00
2008,06,15,05,20,9.00
2008,06,15,05,21,9.00
2008,06,15,05,22,9.00
2008,06,15,05,23,10.50
2008,06,15,05,24,11.00
2008,06,15,05,25,11.00
2008,06,15,05,26,11.00
2008,06,15,05,27,11.90
2008,06,15,05,28,12.00
2008,06,15,05,29,12.00
2008,06,15,05,30,12.00
2008,06,15,05,31,12.40
2008,06,15,05,32,14.00
2008,06,15,05,33,14.00
2008,06,15,05,34,14.00
2008,06,15,05,35,14.60
2008,06,15,05,36,16.00
2008,06,15,05,37,16.00
2008,06,15,05,38,16.00
2008,06,15,05,39,17.00
2008,06,15,05,40,18.00
2008,06,15,05,41,20.20
2008,06,15,05,42,21.00
2008,06,15,05,43,22.60
2008,06,15,05,44,24.80
2008,06,15,05,45,25.00
2008,06,15,05,46,26.00
2008,06,15,05,47,27.60
2008,06,15,05,48,28.00
2008,06,15,05,49,30.00
2008,06,15,05,50,32.00
2008,06,15,05,51,33.10
2008,06,15,05,52,35.00
2008,06,15,05,53,35.30
2008,06,15,05,54,37.50
2008,06,15,05,55,39.20
2008,06,15,05,56,40.60
2008,06,15,05,57,42.70
2008,06,15,05,58,44.60
2008,06,15,05,59,46.40
2008,06,15,06,00,48.00
2008,06,15,06,01,50.10
2008,06,15,06,02,52.20
2008,06,15,06,03,53.50
2008,06,15,06,04,55.40
2008,06,15,06,05,57.60
2008,06,15,06,06,61.20
2008,06,15,06,07,62.90
2008,06,15,06,08,64.50
2008,06,15,06,09,67.00
2008,06,15,06,10,69.00
2008,06,15,06,11,72.00
2008,06,15,06,12,73.80
2008,06,15,06,13,76.00
2008,06,15,06,14,79.10
2008,06,15,06,15,81.20
2008,06,15,06,16,83.60
2008,06,15,06,17,86.40
2008,06,15,06,18,88.40
2008,06,15,06,19,90.80
2008,06,15,06,20,93.60
2008,06,15,06,21,95.90
2008,06,15,06,22,98.80
2008,06,15,06,23,102.20
2008,06,15,06,24,104.60
2008,06,15,06,25,105.00
2008,06,15,06,26,105.00
2008,06,15,06,27,105.00
2008,06,15,06,28,105.00
2008,06,15,06,29,105.00
2008,06,15,06,30,105.00
2008,06,15,06,31,105.00
2008,06,15,06,32,128.00
2008,06,15,06,33,132.00
2008,06,15,06,34,134.00
2008,06,15,06,35,136.70
2008,06,15,06,36,138.90
2008,06,15,06,37,141.90
2008,06,15,06,38,144.30
2008,06,15,06,39,148.40
2008,06,15,06,40,151.80
2008,06,15,06,41,155.20
2008,06,15,06,42,157.20
2008,06,15,06,43,160.80
2008,06,15,06,44,163.30
2008,06,15,06,45,166.90
2008,06,15,06,46,170.30
2008,06,15,06,47,173.10
2008,06,15,06,48,176.50
2008,06,15,06,49,180.10
2008,06,15,06,50,182.10
2008,06,15,06,51,184.50
2008,06,15,06,52,187.60
2008,06,15,06,53,190.80
2008,06,15,06,54,194.80
2008,06,15,06,55,197.00
2008,06,15,06,56,199.40
2008,06,15,06,57,204.00
2008,06,15,06,58,207.00
2008,06,15,06,59,208.90
2008,06,15,07,00,213.10
2008,06,15,07,01,214.50
2008,06,15,07,02,218.60
2008,06,15,07,03,221.40
2008,06,15,07,04,224.10
2008,06,15,07,05,227.50
2008,06,15,07,06,230.10
2008,06,15,07,07,232.80
2008,06,15,07,08,234.90
2008,06,15,07,09,237.20
2008,06,15,07,10,240.10
2008,06,15,07,11,242.90
2008,06,15,07,12,246.80
2008,06,15,07,13,249.50
2008,06,15,07,14,251.80
2008,06,15,07,15,254.60
2008,06,15,07,16,257.60
2008,06,15,07,17,258.00
2008,06,15,07,18,262.60
2008,06,15,07,19,265.00
2008,06,15,07,20,269.00
2008,06,15,07,21,271.70
2008,06,15,07,22,274.20
2008,06,15,07,23,278.10
2008,06,15,07,24,279.50
2008,06,15,07,25,283.30
2008,06,15,07,26,285.60
2008,06,15,07,27,288.60
2008,06,15,07,28,291.20
2008,06,15,07,29,295.10
2008,06,15,07,30,297.60
2008,06,15,07,31,299.70
2008,06,15,07,32,302.50
2008,06,15,07,33,306.20
2008,06,15,07,34,308.60
2008,06,15,07,35,311.20
2008,06,15,07,36,314.50
2008,06,15,07,37,317.40
2008,06,15,07,38,321.20
2008,06,15,07,39,322.90
2008,06,15,07,40,324.90
2008,06,15,07,41,328.00
2008,06,15,07,42,330.00
2008,06,15,07,43,334.00
2008,06,15,07,44,336.00
2008,06,15,07,45,338.90
2008,06,15,07,46,343.10
2008,06,15,07,47,345.40
2008,06,15,07,48,348.40
2008,06,15,07,49,350.80
2008,06,15,07,50,353.60
2008,06,15,07,51,356.10
2008,06,15,07,52,359.90
2008,06,15,07,53,362.90
2008,06,15,07,54,365.50
2008,06,15,07,55,368.10
2008,06,15,07,56,370.20
2008,06,15,07,57,372.50
2008,06,15,07,58,375.00
2008,06,15,07,59,377.10
2008,06,15,08,00,380.40
2008,06,15,08,01,382.60
2008,06,15,08,02,386.50
2008,06,15,08,03,387.70
2008,06,15,08,04,392.00
2008,06,15,08,05,394.00
2008,06,15,08,06,397.00
2008,06,15,08,07,399.00
2008,06,15,08,08,402.80
2008,06,15,08,09,404.20
2008,06,15,08,10,408.20
2008,06,15,08,11,410.60
2008,06,15,08,12,413.50
2008,06,15,08,13,415.80
2008,06,15,08,14,418.60
2008,06,15,08,15,421.30
2008,06,15,08,16,425.00
2008,06,15,08,17,427.00
2008,06,15,08,18,429.10
2008,06,15,08,19,432.70
2008,06,15,08,20,435.20
2008,06,15,08,21,438.00
2008,06,15,08,22,440.10
2008,06,15,08,23,442.20
2008,06,15,08,24,445.60
2008,06,15,08,25,447.40
2008,06,15,08,26,451.80
2008,06,15,08,27,455.00
2008,06,15,08,28,456.60
2008,06,15,08,29,459.00
2008,06,15,08,30,461.00
2008,06,15,08,31,461.30
2008,06,15,08,32,466.10
2008,06,15,08,33,468.10
2008,06,15,08,34,469.60
2008,06,15,08,35,473.80
2008,06,15,08,36,476.50
2008,06,15,08,37,478.60
2008,06,15,08,38,480.70
2008,06,15,08,39,483.00
2008,06,15,08,40,487.00
2008,06,15,08,41,489.50
2008,06,15,08,42,491.10
2008,06,15,08,43,494.00
2008,06,15,08,44,496.70
2008,06,15,08,45,498.50
2008,06,15,08,46,500.60
2008,06,15,08,47,503.00
2008,06,15,08,48,505.80
2008,06,15,08,49,509.80
2008,06,15,08,50,513.00
2008,06,15,08,51,515.00
2008,06,15,08,52,517.00
2008,06,15,08,53,518.80
2008,06,15,08,54,522.00
2008,06,15,08,55,522.30
2008,06,15,08,56,527.50
2008,06,15,08,57,531.40
2008,06,15,08,58,533.20
2008,06,15,08,59,534.40
2008,06,15,09,00,537.20
2008,06,15,09,01,540.40
2008,06,15,09,02,542.60
2008,06,15,09,03,545.70
2008,06,15,09,04,548.50
2008,06,15,09,05,551.10
2008,06,15,09,06,553.90
2008,06,15,09,07,556.30
2008,06,15,09,08,559.20
2008,06,15,09,09,562.20
2008,06,15,09,10,565.00
2008,06,15,09,11,567.70
2008,06,15,09,12,570.20
2008,06,15,09,13,571.00
2008,06,15,09,14,575.00
2008,06,15,09,15,578.00
2008,06,15,09,16,579.80
2008,06,15,09,17,584.00
2008,06,15,09,18,587.00
2008,06,15,09,19,587.20
2008,06,15,09,20,589.30
2008,06,15,09,21,591.50
2008,06,15,09,22,594.60
2008,06,15,09,23,596.60
2008,06,15,09,24,599.10
2008,06,15,09,25,602.80
2008,06,15,09,26,605.50
2008,06,15,09,27,607.10
2008,06,15,09,28,609.10
2008,06,15,09,29,611.20
2008,06,15,09,30,612.50
2008,06,15,09,31,616.00
2008,06,15,09,32,618.60
2008,06,15,09,33,620.60
2008,06,15,09,34,621.90
2008,06,15,09,35,625.00
2008,06,15,09,36,629.00
2008,06,15,09,37,631.00
2008,06,15,09,38,633.00
2008,06,15,09,39,635.00
2008,06,15,09,40,635.00
2008,06,15,09,41,638.20
2008,06,15,09,42,642.10
2008,06,15,09,43,643.80
2008,06,15,09,44,647.00
2008,06,15,09,45,647.80
2008,06,15,09,46,651.00
2008,06,15,09,47,654.80
2008,06,15,09,48,656.40
2008,06,15,09,49,658.00
2008,06,15,09,50,660.10
2008,06,15,09,51,661.90
2008,06,15,09,52,664.90
2008,06,15,09,53,667.40
2008,06,15,09,54,668.00
2008,06,15,09,55,672.00
2008,06,15,09,56,674.30
2008,06,15,09,57,676.80
2008,06,15,09,58,678.90
2008,06,15,09,59,680.00
2008,06,15,10,00,682.00
2008,06,15,10,01,683.70
2008,06,15,10,02,686.00
2008,06,15,10,03,689.00
2008,06,15,10,04,691.10
2008,06,15,10,05,693.10
2008,06,15,10,06,694.00
2008,06,15,10,07,695.00
2008,06,15,10,08,698.80
2008,06,15,10,09,701.00
2008,06,15,10,10,702.10
2008,06,15,10,11,705.90
2008,06,15,10,12,707.50
2008,06,15,10,13,710.10
2008,06,15,10,14,712.00
2008,06,15,10,15,713.20
2008,06,15,10,16,716.10
2008,06,15,10,17,718.50
2008,06,15,10,18,720.60
2008,06,15,10,19,721.70
2008,06,15,10,20,723.80
2008,06,15,10,21,727.80
2008,06,15,10,22,728.90
2008,06,15,10,23,731.00
2008,06,15,10,24,732.70
2008,06,15,10,25,733.00
2008,06,15,10,26,737.00
2008,06,15,10,27,738.10
2008,06,15,10,28,740.20
2008,06,15,10,29,742.40
2008,06,15,10,30,744.20
2008,06,15,10,31,745.50
2008,06,15,10,32,747.50
2008,06,15,10,33,749.80
2008,06,15,10,34,751.40
2008,06,15,10,35,753.00
2008,06,15,10,36,755.10
2008,06,15,10,37,757.70
2008,06,15,10,38,759.00
2008,06,15,10,39,760.10
2008,06,15,10,40,762.50
2008,06,15,10,41,764.60
2008,06,15,10,42,765.70
2008,06,15,10,43,767.80
2008,06,15,10,44,769.90
2008,06,15,10,45,772.40
2008,06,15,10,46,773.00
2008,06,15,10,47,775.00
2008,06,15,10,48,776.80
2008,06,15,10,49,780.00
2008,06,15,10,50,780.00
2008,06,15,10,51,780.50
2008,06,15,10,52,784.40
2008,06,15,10,53,786.40
2008,06,15,10,54,788.20
2008,06,15,10,55,789.60
2008,06,15,10,56,791.80
2008,06,15,10,57,793.80
2008,06,15,10,58,795.40
2008,06,15,10,59,796.00
2008,06,15,11,00,798.20
2008,06,15,11,01,800.00
2008,06,15,11,02,801.70
2008,06,15,11,03,804.50
2008,06,15,11,04,806.20
2008,06,15,11,05,807.00
2008,06,15,11,06,808.80
2008,06,15,11,07,809.90
2008,06,15,11,08,811.60
2008,06,15,11,09,814.00
2008,06,15,11,10,816.00
2008,06,15,11,11,816.90
2008,06,15,11,12,817.00
2008,06,15,11,13,819.10
2008,06,15,11,14,821.20
2008,06,15,11,15,823.00
2008,06,15,11,16,823.60
2008,06,15,11,17,826.00
2008,06,15,11,18,826.60
2008,06,15,11,19,828.00
2008,06,15,11,20,829.30
2008,06,15,11,21,831.00
2008,06,15,11,22,832.00
2008,06,15,11,23,834.10
2008,06,15,11,24,836.30
2008,06,15,11,25,837.00
2008,06,15,11,26,837.00
2008,06,15,11,27,837.00
2008,06,15,11,28,841.10
2008,06,15,11,29,843.80
2008,06,15,11,30,844.00
2008,06,15,11,31,844.00
2008,06,15,11,32,846.00
2008,06,15,11,33,846.00
2008,06,15,11,34,848.70
2008,06,15,11,35,849.00
2008,06,15,11,36,851.10
2008,06,15,11,37,852.80
2008,06,15,11,38,851.40
2008,06,15,11,39,854.30
2008,06,15,11,40,856.00
2008,06,15,11,41,856.00
2008,06,15,11,42,856.80
2008,06,15,11,43,858.00
2008,06,15,11,44,859.00
2008,06,15,11,45,860.50
2008,06,15,11,46,862.10
2008,06,15,11,47,864.30
2008,06,15,11,48,865.00
2008,06,15,11,49,866.50
2008,06,15,11,50,865.40
2008,06,15,11,51,867.60
2008,06,15,11,52,868.00
2008,06,15,11,53,869.90
2008,06,15,11,54,871.90
2008,06,15,11,55,872.00
2008,06,15,11,56,872.00
2008,06,15,11,57,875.00
2008,06,15,11,58,874.00
2008,06,15,11,59,876.90
2008,06,15,12,00,875.20
2008,06,15,12,01,877.00
2008,06,15,12,02,877.40
2008,06,15,12,03,878.50
2008,06,15,12,04,878.00
2008,06,15,12,05,881.00
2008,06,15,12,06,881.30
2008,06,15,12,07,882.00
2008,06,15,12,08,883.00
2008,06,15,12,09,884.00
2008,06,15,12,10,885.20
2008,06,15,12,11,886.00
2008,06,15,12,12,887.50
2008,06,15,12,13,888.00
2008,06,15,12,14,888.00
2008,06,15,12,15,890.60
2008,06,15,12,16,889.10
2008,06,15,12,17,891.00
2008,06,15,12,18,891.00
2008,06,15,12,19,892.70
2008,06,15,12,20,891.00
2008,06,15,12,21,893.00
2008,06,15,12,22,893.10
2008,06,15,12,23,895.00
2008,06,15,12,24,895.00
2008,06,15,12,25,895.00
2008,06,15,12,26,895.00
2008,06,15,12,27,895.30
2008,06,15,12,28,896.00
2008,06,15,12,29,896.70
2008,06,15,12,30,898.00
2008,06,15,12,31,898.00
2008,06,15,12,32,899.80
2008,06,15,12,33,902.00
2008,06,15,12,34,902.00
2008,06,15,12,35,902.00
2008,06,15,12,36,902.00
2008,06,15,12,37,903.60
2008,06,15,12,38,904.00
2008,06,15,12,39,904.00
2008,06,15,12,40,904.80
2008,06,15,12,41,905.00
2008,06,15,12,42,905.00
2008,06,15,12,43,905.00
2008,06,15,12,44,907.00
2008,06,15,12,45,905.10
2008,06,15,12,46,907.00
2008,06,15,12,47,906.70
2008,06,15,12,48,905.00
2008,06,15,12,49,905.50
2008,06,15,12,50,907.60
2008,06,15,12,51,908.20
2008,06,15,12,52,906.10
2008,06,15,12,53,905.90
2008,06,15,12,54,907.90
2008,06,15,12,55,909.00
2008,06,15,12,56,909.00
2008,06,15,12,57,909.00
2008,06,15,12,58,910.50
2008,06,15,12,59,909.80
2008,06,15,13,00,910.60
2008,06,15,13,01,909.20
2008,06,15,13,02,910.90
2008,06,15,13,03,911.00
2008,06,15,13,04,911.00
2008,06,15,13,05,911.00
2008,06,15,13,06,909.00
2008,06,15,13,07,909.00
2008,06,15,13,08,911.00
2008,06,15,13,09,911.00
2008,06,15,13,10,911.00
2008,06,15,13,11,911.00
2008,06,15,13,12,911.30
2008,06,15,13,13,912.00
2008,06,15,13,14,912.00
2008,06,15,13,15,912.00
2008,06,15,13,16,912.70
2008,06,15,13,17,913.00
2008,06,15,13,18,912.00
2008,06,15,13,19,912.00
2008,06,15,13,20,912.00
2008,06,15,13,21,912.00
2008,06,15,13,22,912.00
2008,06,15,13,23,912.00
2008,06,15,13,24,911.30
2008,06,15,13,25,911.90
2008,06,15,13,26,912.00
2008,06,15,13,27,912.00
2008,06,15,13,28,911.00
2008,06,15,13,29,912.00
2008,06,15,13,30,911.00
2008,06,15,13,31,909.10
2008,06,15,13,32,911.00
2008,06,15,13,33,911.00
2008,06,15,13,34,911.00
2008,06,15,13,35,911.00
2008,06,15,13,36,910.50
2008,06,15,13,37,909.00
2008,06,15,13,38,909.00
2008,06,15,13,39,909.00
2008,06,15,13,40,909.00
2008,06,15,13,41,907.90
2008,06,15,13,42,908.20
2008,06,15,13,43,907.60
2008,06,15,13,44,907.00
2008,06,15,13,45,905.40
2008,06,15,13,46,906.60
2008,06,15,13,47,905.30
2008,06,15,13,48,905.00
2008,06,15,13,49,907.00
2008,06,15,13,50,905.00
2008,06,15,13,51,905.00
2008,06,15,13,52,904.10
2008,06,15,13,53,905.00
2008,06,15,13,54,904.90
2008,06,15,13,55,904.00
2008,06,15,13,56,904.00
2008,06,15,13,57,903.60
2008,06,15,13,58,902.00
2008,06,15,13,59,901.50
2008,06,15,14,00,900.00
2008,06,15,14,01,900.00
2008,06,15,14,02,899.00
2008,06,15,14,03,898.00
2008,06,15,14,04,899.20
2008,06,15,14,05,898.80
2008,06,15,14,06,898.00
2008,06,15,14,07,895.80
2008,06,15,14,08,895.00
2008,06,15,14,09,895.90
2008,06,15,14,10,893.90
2008,06,15,14,11,894.90
2008,06,15,14,12,893.00
2008,06,15,14,13,893.00
2008,06,15,14,14,893.00
2008,06,15,14,15,893.00
2008,06,15,14,16,891.00
2008,06,15,14,17,889.00
2008,06,15,14,18,889.00
2008,06,15,14,19,888.80
2008,06,15,14,20,888.00
2008,06,15,14,21,888.00
2008,06,15,14,22,887.40
2008,06,15,14,23,886.00
2008,06,15,14,24,885.10
2008,06,15,14,25,884.00
2008,06,15,14,26,883.10
2008,06,15,14,27,882.00
2008,06,15,14,28,881.40
2008,06,15,14,29,881.00
2008,06,15,14,30,879.50
2008,06,15,14,31,879.00
2008,06,15,14,32,877.40
2008,06,15,14,33,877.00
2008,06,15,14,34,877.00
2008,06,15,14,35,877.00
2008,06,15,14,36,875.30
2008,06,15,14,37,874.00
2008,06,15,14,38,874.00
2008,06,15,14,39,872.00
2008,06,15,14,40,872.00
2008,06,15,14,41,872.00
2008,06,15,14,42,871.20
2008,06,15,14,43,868.00
2008,06,15,14,44,867.80
2008,06,15,14,45,867.00
2008,06,15,14,46,866.20
2008,06,15,14,47,864.10
2008,06,15,14,48,862.10
2008,06,15,14,49,861.00
2008,06,15,14,50,861.00
2008,06,15,14,51,859.10
2008,06,15,14,52,858.00
2008,06,15,14,53,856.50
2008,06,15,14,54,854.50
2008,06,15,14,55,853.10
2008,06,15,14,56,851.10
2008,06,15,14,57,851.00
2008,06,15,14,58,849.00
2008,06,15,14,59,847.00
2008,06,15,15,00,846.20
2008,06,15,15,01,846.00
2008,06,15,15,02,846.00
2008,06,15,15,03,841.90
2008,06,15,15,04,840.00
2008,06,15,15,05,840.00
2008,06,15,15,06,839.20
2008,06,15,15,07,836.50
2008,06,15,15,08,835.00
2008,06,15,15,09,834.20
2008,06,15,15,10,832.10
2008,06,15,15,11,830.50
2008,06,15,15,12,830.00
2008,06,15,15,13,828.90
2008,06,15,15,14,825.60
2008,06,15,15,15,825.10
2008,06,15,15,16,823.80
2008,06,15,15,17,821.40
2008,06,15,15,18,821.00
2008,06,15,15,19,817.50
2008,06,15,15,20,817.00
2008,06,15,15,21,816.00
2008,06,15,15,22,816.00
2008,06,15,15,23,814.30
2008,06,15,15,24,812.00
2008,06,15,15,25,809.90
2008,06,15,15,26,809.00
2008,06,15,15,27,806.80
2008,06,15,15,28,805.00
2008,06,15,15,29,804.50
2008,06,15,15,30,802.80
2008,06,15,15,31,801.30
2008,06,15,15,32,800.00
2008,06,15,15,33,798.20
2008,06,15,15,34,795.50
2008,06,15,15,35,794.00
2008,06,15,15,36,790.60
2008,06,15,15,37,789.00
2008,06,15,15,38,788.50
2008,06,15,15,39,788.00
2008,06,15,15,40,784.80
2008,06,15,15,41,784.00
2008,06,15,15,42,781.20
2008,06,15,15,43,780.00
2008,06,15,15,44,777.00
2008,06,15,15,45,777.00
2008,06,15,15,46,775.00
2008,06,15,15,47,773.20
2008,06,15,15,48,772.00
2008,06,15,15,49,768.00
2008,06,15,15,50,767.80
2008,06,15,15,51,765.60
2008,06,15,15,52,762.50
2008,06,15,15,53,761.00
2008,06,15,15,54,760.50
2008,06,15,15,55,757.90
2008,06,15,15,56,755.20
2008,06,15,15,57,754.00
2008,06,15,15,58,752.40
2008,06,15,15,59,749.90
2008,06,15,16,00,747.80
2008,06,15,16,01,746.00
2008,06,15,16,02,745.00
2008,06,15,16,03,742.70
2008,06,15,16,04,740.30
2008,06,15,16,05,738.60
2008,06,15,16,06,737.10
2008,06,15,16,07,733.00
2008,06,15,16,08,733.00
2008,06,15,16,09,729.00
2008,06,15,16,10,728.10
2008,06,15,16,11,726.00
2008,06,15,16,12,724.00
2008,06,15,16,13,723.60
2008,06,15,16,14,720.60
2008,06,15,16,15,718.20
2008,06,15,16,16,714.80
2008,06,15,16,17,713.40
2008,06,15,16,18,711.30
2008,06,15,16,19,710.00
2008,06,15,16,20,708.70
2008,06,15,16,21,707.00
2008,06,15,16,22,703.60
2008,06,15,16,23,701.00
2008,06,15,16,24,700.30
2008,06,15,16,25,698.50
2008,06,15,16,26,695.60
2008,06,15,16,27,694.00
2008,06,15,16,28,691.40
2008,06,15,16,29,689.10
2008,06,15,16,30,687.00
2008,06,15,16,31,684.60
2008,06,15,16,32,682.00
2008,06,15,16,33,680.00
2008,06,15,16,34,679.00
2008,06,15,16,35,674.90
2008,06,15,16,36,672.80
2008,06,15,16,37,670.80
2008,06,15,16,38,669.00
2008,06,15,16,39,666.00
2008,06,15,16,40,665.20
2008,06,15,16,41,661.50
2008,06,15,16,42,658.10
2008,06,15,16,43,656.50
2008,06,15,16,44,654.90
2008,06,15,16,45,652.20
2008,06,15,16,46,649.40
2008,06,15,16,47,646.20
2008,06,15,16,48,643.50
2008,06,15,16,49,642.40
2008,06,15,16,50,638.80
2008,06,15,16,51,636.20
2008,06,15,16,52,635.20
2008,06,15,16,53,633.00
2008,06,15,16,54,631.40
2008,06,15,16,55,628.50
2008,06,15,16,56,626.20
2008,06,15,16,57,622.00
2008,06,15,16,58,620.90
2008,06,15,16,59,618.80
2008,06,15,17,00,616.20
2008,06,15,17,01,612.20
2008,06,15,17,02,610.00
2008,06,15,17,03,608.80
2008,06,15,17,04,605.70
2008,06,15,17,05,603.70